Terminal Aerodrome Forecast
Issued by NWS Atlanta, GA

Home | Current Version | Previous Version | Text Only | Print | Product List | Glossary On
Versions: 1 2 3 4 5 6 7 8 9 10 11 12 13 14
000
FTUS42 KFFC 011134
TAFCSG
TAF
KCSG 011134Z 0112/0212 11003KT P6SM SCT150
     FM011500 14010G16KT P6SM SCT050 BKN120
     FM011800 17008KT P6SM SCT025 OVC050
     FM012100 17009KT P6SM -RA OVC025
     FM012300 18007KT 5SM -RA BR OVC015
     FM020200 21012KT 2SM -SHRA OVC008=

USA.gov is the U.S. government's official web portal to all federal, state and local government web resources and services.